Theta_e
316 316 316 317 317 317 318 318 319 318 318 319 319 319 320 321 321 321 321 321 321 322 322 323 324 324 325 325 325 324 323 317 313 311 308 311 323 336 339 340 337 334 327 314 312 310 308 310 310 310 312 311 309 310 309 311 307 309 302 299 297 298 297 301 301 302 302 302 302 302 301 302 301 304 305 303 301 302 304 304 304 303 302 303 302 304 304 306
316 316 316 316 316 317 317 318 318 317 318 318 319 319 319 320 320 320 321 321 321 321 322 323 323 324 325 325 324 324 322 315 309 312 314 324 335 338 340 338 337 332 323 312 310 308 308 308 308 309 309 307 310 307 309 309 309 305 302 301 297 299 299 302 303 303 302 302 302 302 299 301 302 302 304 302 303 302 303 304 304 300 302 304 304 304 304 304
315 316 315 315 315 316 317 317 318 317 318 318 318 319 319 319 320 320 321 321 321 321 322 322 323 324 324 325 324 322 318 310 309 310 314 328 336 339 337 336 334 330 315 312 310 311 309 309 309 308 307 305 306 305 310 306 308 304 304 299 299 301 300 300 302 303 303 302 302 302 300 300 302 302 304 301 302 302 301 302 303 303 302 302 302 302 303 304
315 315 315 315 315 316 316 316 317 317 317 318 318 318 319 319 320 321 321 321 322 322 322 322 323 324 324 324 324 320 315 311 305 308 313 328 335 339 337 330 324 317 313 310 309 311 309 309 308 309 306 304 304 305 305 305 305 304 303 300 301 300 300 301 302 303 302 301 302 301 299 299 302 302 302 302 301 302 301 300 300 300 301 301 301 301 302 302
315 315 315 314 315 316 316 316 316 317 317 318 318 319 318 320 320 321 321 321 322 322 322 323 324 324 323 324 321 319 312 303 305 309 315 329 336 338 332 331 321 315 312 309 311 309 310 309 308 306 306 302 304 304 302 305 304 305 302 302 302 300 302 303 303 302 301 299 301 300 300 301 301 301 301 301 299 301 299 299 300 301 300 299 299 300 301 301
314 314 315 315 314 316 316 315 316 317 317 317 318 319 320 320 321 321 321 321 321 322 322 323 323 323 324 324 322 313 308 294 308 311 328 331 336 333 328 322 318 311 312 311 310 309 309 308 307 304 303 302 300 301 301 304 303 302 301 301 302 302 302 303 302 300 300 300 300 300 301 301 300 300 300 300 299 298 299 300 300 299 299 298 299 300 300 300
315 315 315 315 314 314 316 315 315 317 317 318 318 319 320 321 320 321 321 321 322 322 322 323 323 323 323 320 317 312 306 305 311 314 324 329 333 329 325 321 323 314 313 311 310 309 307 306 305 303 302 301 299 301 300 302 304 302 301 300 301 301 302 302 302 300 300 300 300 301 299 299 299 299 299 298 297 299 298 299 298 298 299 299 299 299 298 298
315 315 316 314 314 314 315 316 315 316 317 318 319 319 321 321 321 321 321 321 321 322 322 322 322 323 321 318 315 310 307 306 311 313 319 323 320 320 318 317 314 316 311 309 309 308 307 305 303 302 302 301 300 301 299 300 301 301 300 301 300 298 302 302 301 300 300 300 301 298 298 300 300 299 299 296 297 299 298 298 298 298 299 298 298 297 298 298
315 316 316 314 314 314 313 315 315 317 317 318 319 320 321 321 321 321 321 321 321 321 321 322 322 321 319 314 310 305 304 315 312 317 322 314 312 311 316 314 311 311 308 308 308 309 308 304 303 304 301 300 300 300 299 300 301 300 300 300 300 300 301 301 299 299 299 299 298 298 300 299 299 300 297 296 298 298 298 297 297 298 297 297 296 296 297 297
316 315 315 316 315 315 314 314 315 317 318 318 319 320 321 321 321 321 321 321 320 321 320 321 320 318 313 315 311 301 309 312 321 322 317 313 310 312 311 315 311 310 309 306 307 308 306 306 306 305 306 301 301 300 299 300 300 301 300 300 300 301 298 300 299 300 298 299 298 299 299 298 298 297 297 295 298 298 298 297 297 297 296 295 295 296 296 296
316 316 316 316 316 316 316 315 315 316 317 318 319 320 321 321 321 321 321 321 320 320 320 320 318 316 314 310 306 302 315 321 321 321 313 310 312 311 313 311 311 310 309 307 308 308 308 308 308 305 305 302 302 299 300 300 300 299 299 299 299 299 300 299 299 298 298 298 297 299 298 298 297 298 297 296 297 299 298 297 296 296 296 296 295 295 296 296
316 317 317 318 318 317 316 316 316 316 317 318 320 320 320 321 321 321 321 320 320 321 321 319 317 314 309 309 306 308 311 315 319 317 316 315 315 314 313 310 310 315 311 308 310 311 310 309 308 304 302 304 300 299 299 299 299 298 298 299 301 301 301 299 298 298 297 298 296 299 297 296 297 295 295 297 298 298 298 296 296 295 295 295 295 295 296 296
316 317 318 319 319 317 317 316 316 316 317 318 320 320 321 321 321 321 321 320 320 320 319 319 316 314 311 304 307 310 309 319 314 313 312 314 311 310 310 310 311 310 312 310 310 313 308 309 308 304 303 304 302 299 300 300 298 297 299 298 299 300 300 298 299 298 298 298 295 297 295 297 295 296 297 297 298 298 298 297 296 295 295 294 295 295 296 296
318 318 318 319 319 317 316 316 316 317 317 319 320 320 321 321 322 321 320 319 320 320 318 316 316 313 308 306 307 307 314 319 314 314 313 312 313 313 312 311 310 310 314 311 308 308 307 307 309 304 305 303 300 302 300 299 299 299 297 297 297 296 297 298 298 298 299 297 296 299 296 297 295 296 298 297 296 297 298 296 295 294 294 294 294 295 295 295
318 318 318 319 318 317 316 316 316 317 318 319 320 320 322 321 320 320 319 320 318 320 320 319 316 311 305 307 307 313 319 318 314 315 313 312 312 311 309 310 308 307 308 310 309 307 307 311 309 304 301 299 302 300 299 299 298 298 296 296 296 295 298 298 297 297 298 297 298 299 296 299 296 296 297 296 297 298 297 295 294 293 294 293 294 294 295 295
318 318 319 319 318 317 315 316 316 317 319 320 320 322 322 320 319 319 320 319 318 317 317 318 315 310 304 304 308 319 313 311 314 313 311 313 317 312 312 308 308 308 308 305 306 306 308 309 303 301 300 300 300 300 298 298 298 296 296 296 296 295 297 297 297 297 297 296 299 298 297 296 296 296 296 296 296 296 296 294 294 293 292 293 293 294 294 295
318 319 319 319 318 317 316 316 316 317 318 320 321 321 321 320 317 319 320 315 315 315 318 310 310 308 303 308 310 306 307 310 308 313 311 310 311 311 310 309 306 306 308 307 309 310 306 305 299 301 301 300 300 300 296 295 295 296 296 295 298 294 296 295 297 298 299 297 297 299 296 298 296 296 296 295 295 296 295 293 293 293 293 293 293 293 294 294
319 319 319 318 318 318 317 316 316 317 319 320 321 319 318 318 320 320 317 317 316 315 312 312 310 309 305 305 303 305 307 308 311 308 309 306 311 308 309 306 303 307 307 305 307 305 304 302 301 300 299 298 298 298 293 292 296 297 294 294 294 293 293 295 295 297 297 298 298 297 297 299 296 296 294 294 294 295 294 294 293 292 292 293 293 293 293 293
319 318 318 319 319 318 317 316 317 318 319 321 320 320 318 316 317 318 313 313 309 305 303 304 304 299 299 303 305 307 309 308 309 311 309 309 308 307 307 308 309 306 303 302 302 302 303 302 302 299 295 295 296 298 297 299 298 297 297 296 296 294 296 294 297 297 296 297 297 297 297 299 299 294 294 294 294 294 293 293 292 292 292 292 292 293 293 293
319 318 318 319 319 319 317 317 318 318 320 320 319 317 315 310 310 309 309 310 307 307 306 307 307 303 303 301 306 306 308 310 308 308 310 308 308 307 305 305 306 305 302 300 300 301 302 298 296 295 298 298 299 300 300 298 297 296 297 295 295 295 296 296 295 296 295 296 296 298 298 298 300 298 295 293 293 293 293 293 293 292 292 292 292 292 292 292
320 319 319 320 319 318 317 317 318 319 320 320 317 312 305 306 301 301 305 308 311 309 306 306 307 306 304 306 307 305 305 304 307 308 309 311 308 308 302 304 302 298 300 298 301 298 299 297 297 300 300 300 300 300 297 296 296 296 296 295 294 295 294 297 295 295 296 294 296 295 295 296 299 296 294 293 293 293 293 293 292 292 292 292 292 292 292 291
320 320 320 320 319 318 317 317 319 320 321 320 316 310 309 309 309 309 309 304 309 310 309 308 306 306 306 305 308 308 309 304 304 307 309 309 305 303 301 301 298 298 297 298 298 296 295 294 299 301 298 297 296 296 296 297 295 295 295 295 293 295 296 296 294 294 295 294 295 295 294 296 298 294 292 292 293 293 292 293 292 292 292 292 292 292 292 292
320 321 321 320 319 318 317 318 319 320 319 315 312 311 311 316 313 312 312 307 305 309 307 306 305 306 306 308 308 305 304 302 302 305 306 308 302 302 301 299 298 298 296 298 296 295 292 296 300 297 297 296 293 294 294 294 295 294 294 292 292 296 293 294 294 293 293 294 295 294 293 296 296 292 291 291 291 290 291 290 291 292 292 292 292 292 292 292
320 320 321 320 319 318 318 318 319 319 316 315 314 313 315 310 311 311 311 302 301 306 306 308 308 307 307 306 309 306 304 304 304 303 309 305 302 303 300 300 297 296 295 296 298 297 296 297 296 297 297 297 295 293 293 293 293 295 295 294 294 294 294 295 295 293 292 293 291 293 293 294 298 294 291 290 290 289 290 290 290 291 292 292 292 291 292 292
320 319 320 320 318 319 318 319 315 315 318 316 314 318 319 315 310 311 308 304 302 303 309 307 309 310 309 310 308 305 305 304 305 306 308 306 300 299 300 300 298 295 297 297 296 297 297 297 296 295 295 296 296 292 294 296 293 295 295 295 296 296 295 294 293 293 294 293 293 293 289 292 295 294 294 290 290 289 289 289 290 290 291 291 290 291 291 291
320 319 320 319 318 318 320 312 314 317 315 312 316 320 321 318 312 309 307 299 294 302 304 300 311 305 316 305 307 307 305 301 304 305 307 307 308 303 299 298 298 296 296 295 295 297 297 295 299 296 295 295 296 296 297 297 295 293 295 297 296 295 295 295 293 293 290 289 292 291 289 289 295 294 292 290 290 289 289 289 290 290 291 291 291 292 291 291
320 320 320 319 319 319 312 309 318 317 308 312 319 319 318 317 311 309 302 296 291 303 300 305 305 306 311 304 306 308 296 300 301 304 305 307 304 307 300 298 297 297 297 299 295 293 295 294 295 297 296 295 294 293 296 295 295 293 294 292 296 295 293 294 294 293 293 293 292 289 292 287 288 294 290 290 290 289 289 289 290 290 291 291 291 291 291 291
320 320 319 319 319 318 315 317 314 311 312 314 313 317 314 313 311 310 301 287 287 307 300 299 303 309 308 301 306 303 299 301 299 300 301 303 303 302 300 298 298 297 295 298 290 298 296 293 295 295 295 294 294 297 297 297 296 295 291 294 294 295 295 295 294 292 292 290 289 289 292 286 287 292 288 290 289 289 289 290 290 290 291 291 292 291 292 291
320 320 319 319 319 319 319 317 315 311 316 310 313 313 312 312 311 305 297 285 302 299 311 299 311 304 300 303 300 297 297 297 298 298 302 302 303 301 298 299 299 298 296 298 297 296 295 296 298 299 296 294 296 291 296 298 296 292 292 293 293 293 293 294 292 292 290 288 285 290 291 286 288 294 291 289 289 291 291 291 291 291 291 292 291 292 291 291
320 320 319 319 319 317 316 317 315 317 309 310 311 311 312 310 306 296 289 282 305 295 300 300 299 298 300 298 298 297 296 296 296 298 300 300 300 302 296 300 298 297 296 296 297 295 293 294 294 297 296 298 292 290 291 294 293 293 295 294 293 292 291 291 291 290 288 283 286 292 291 290 285 292 293 291 293 294 293 292 292 292 292 292 292 292 291 290
320 319 318 318 314 315 317 311 315 311 309 308 311 312 310 306 298 292 283 294 304 296 298 297 294 300 298 297 295 294 294 292 296 298 296 299 297 299 298 297 301 297 294 294 293 294 293 293 295 296 292 292 295 291 291 290 292 295 294 293 293 290 291 290 288 289 284 284 286 285 288 290 283 289 295 297 291 294 294 292 291 291 291 291 292 292 291 291
320 319 318 317 318 320 311 310 317 311 309 309 310 308 306 293 298 288 288 301 293 296 297 294 294 297 297 297 295 292 295 293 296 297 295 295 295 295 295 296 295 290 289 291 291 292 291 293 295 294 294 295 294 293 291 292 291 294 294 293 289 286 285 283 285 281 282 284 284 285 286 285 285 293 296 294 294 293 295 295 293 292 291 292 292 292 291 291
319 318 318 318 317 316 317 319 316 310 309 310 309 308 299 291 283 293 295 296 293 299 295 299 294 295 297 295 293 292 294 293 294 295 295 294 295 296 298 297 299 297 291 293 292 290 293 294 292 295 293 294 297 292 289 288 290 291 291 289 287 283 281 279 282 282 282 285 284 285 288 284 291 293 296 296 294 293 292 293 295 294 293 292 292 292 291 290
319 318 316 317 318 318 319 318 315 311 308 310 306 300 296 287 287 298 296 298 297 293 296 294 293 295 296 295 295 294 292 294 294 294 295 293 293 293 295 296 295 294 295 292 290 290 287 288 291 292 292 297 296 298 296 294 290 291 296 293 290 289 283 279 282 280 283 284 282 285 284 285 285 291 287 289 287 289 289 289 292 294 294 294 293 292 291 290
318 318 318 317 316 318 318 316 313 312 310 307 301 295 287 287 292 293 295 298 294 295 293 296 295 294 294 294 292 294 296 292 295 293 292 292 291 293 293 294 295 296 296 291 293 290 291 292 293 296 292 295 295 296 297 294 292 292 293 294 289 288 291 286 284 284 282 283 281 280 284 290 291 288 289 287 288 288 288 289 289 291 292 293 291 290 290 289
316 316 318 313 313 317 318 315 313 313 309 303 296 290 288 292 290 299 298 304 296 295 292 295 295 293 292 293 292 293 297 294 292 293 291 292 294 293 296 296 295 295 294 292 293 288 288 289 290 292 292 293 295 294 295 297 288 290 290 287 291 294 292 282 280 279 279 282 282 287 286 289 292 290 287 288 287 288 287 288 288 290 291 291 290 291 290 289
313 315 310 313 314 318 318 316 314 312 308 302 295 287 294 297 303 303 303 301 298 296 294 292 291 292 291 290 292 291 294 294 292 293 290 293 291 293 292 295 299 296 297 299 291 297 289 290 289 291 289 290 290 292 294 293 295 290 286 291 291 294 294 289 284 282 282 281 283 284 284 287 286 286 288 288 287 288 288 287 288 289 290 289 290 290 290 290
313 313 313 313 314 318 319 316 314 311 305 299 292 293 300 296 304 305 302 298 295 299 296 294 297 297 292 293 291 291 293 293 291 292 291 292 292 299 294 294 298 297 297 298 295 295 296 288 289 289 290 291 290 294 293 294 293 292 292 299 291 286 284 289 286 279 279 278 282 283 285 286 289 290 287 288 288 290 289 289 287 288 288 289 290 291 291 291
313 311 304 313 318 319 318 317 313 307 300 294 293 292 298 300 306 301 300 301 300 299 296 297 297 296 297 292 294 293 292 289 292 291 290 291 289 296 295 297 295 298 298 297 293 293 295 289 287 289 290 291 291 292 286 289 292 292 293 292 293 291 289 285 287 286 286 283 280 282 280 283 289 292 292 293 292 293 291 288 288 289 289 290 291 291 291 290
308 302 303 315 317 318 318 314 307 303 298 291 293 295 303 299 302 304 301 301 299 299 298 299 301 296 295 295 295 291 292 294 291 291 293 294 293 296 295 299 297 295 297 297 296 298 292 293 287 287 290 290 286 290 289 290 287 287 290 289 290 289 290 291 289 286 286 283 282 282 281 286 291 295 295 295 295 294 292 290 290 290 291 291 292 292 292 291
309 303 302 314 317 318 315 309 301 296 295 297 298 297 300 299 302 303 302 303 305 305 301 300 299 296 296 292 291 295 292 292 292 291 292 293 294 290 296 296 297 294 295 295 295 295 289 289 287 285 286 286 290 293 290 293 293 291 290 288 290 287 285 283 283 287 284 285 282 281 280 287 292 288 293 294 294 295 294 293 292 292 291 291 292 293 292 291
304 295 301 314 317 316 307 297 297 301 298 295 295 299 298 304 302 302 302 302 303 303 303 302 300 300 297 295 297 292 293 291 291 292 292 292 295 297 295 295 296 297 293 289 292 296 295 291 289 285 287 288 290 290 289 289 291 292 292 291 294 292 291 287 283 283 282 283 283 283 279 286 290 289 289 290 291 291 294 293 292 292 292 292 292 293 293 293
301 300 303 310 316 312 304 296 298 297 296 298 304 301 303 300 301 301 300 301 300 302 300 298 298 297 299 299 295 294 294 291 292 290 294 291 294 295 296 294 297 297 297 292 295 293 292 288 287 287 289 289 290 290 290 290 291 290 291 291 292 290 291 290 289 287 286 284 282 283 280 286 288 289 288 288 288 288 290 293 293 293 292 292 292 292 292 292
299 297 301 307 311 311 300 291 290 293 296 298 299 299 301 301 300 297 299 300 299 298 299 298 298 301 298 299 295 291 295 288 293 292 290 294 294 294 293 292 296 292 296 293 292 296 288 290 289 285 284 286 287 289 289 290 290 289 290 291 292 293 291 287 286 287 285 286 285 284 280 287 288 287 287 287 287 287 288 290 292 292 292 292 292 292 292 291
298 299 299 302 305 303 297 298 293 292 294 294 295 295 296 296 300 302 301 299 302 300 300 297 300 300 297 297 296 295 295 294 287 292 293 291 293 291 292 293 297 295 295 297 295 298 291 288 287 283 280 279 278 279 282 283 286 289 287 288 290 290 289 287 285 286 283 285 286 285 285 290 290 290 290 289 287 287 288 289 290 292 292 291 291 291 291 290
296 289 296 298 301 298 298 297 298 295 292 292 292 294 296 295 297 299 302 300 302 300 300 298 297 300 295 294 293 293 292 295 293 289 290 289 290 290 289 291 291 292 293 294 293 295 289 289 288 288 287 286 287 286 288 292 289 286 287 287 288 291 291 290 289 286 283 284 284 287 288 289 288 289 290 291 288 289 289 288 288 288 289 291 291 291 290 289
298 292 290 288 297 296 293 296 295 296 292 296 289 293 292 294 296 296 301 296 300 300 297 297 296 295 293 295 294 293 295 293 291 289 290 290 289 291 291 292 292 292 293 291 293 290 287 287 288 287 287 286 286 287 288 290 288 289 288 286 288 287 288 286 286 285 288 285 282 288 290 286 288 290 292 292 290 288 290 290 289 288 289 289 290 290 290 289
293 294 296 297 292 288 290 290 295 295 296 296 292 295 292 293 294 291 296 298 298 300 295 294 295 298 297 295 296 290 291 292 290 290 289 289 288 289 289 290 290 291 290 290 292 292 288 286 289 288 287 288 289 288 288 289 287 288 290 289 287 288 286 284 286 289 288 286 284 289 288 287 289 292 293 294 293 291 291 291 292 291 290 290 289 289 289 288
295 293 294 297 291 292 293 295 296 295 294 295 292 294 291 292 292 295 295 293 295 294 298 290 293 296 297 298 296 290 291 287 286 290 288 287 287 287 286 288 289 289 289 289 289 288 288 287 287 288 287 288 288 287 287 287 287 288 287 288 289 288 286 287 288 289 288 287 290 291 290 289 293 293 293 293 294 294 294 292 289 289 289 289 288 288 288 288
290 292 289 293 292 290 292 293 294 294 291 294 289 290 293 293 292 294 293 294 288 292 297 294 294 295 296 295 296 291 292 294 291 288 289 289 287 289 287 289 286 287 289 289 289 288 289 285 287 287 285 286 288 287 286 286 286 286 288 289 289 287 285 286 287 288 288 287 288 288 288 288 293 294 294 291 289 290 289 289 289 290 290 288 288 288 288 288
294 293 296 291 288 288 290 292 292 292 289 289 288 289 291 293 293 296 292 294 294 291 293 293 295 293 292 293 293 293 292 290 290 290 290 291 287 289 288 287 291 286 287 286 287 287 288 286 287 286 284 285 285 286 284 285 285 285 286 288 289 286 284 285 284 287 286 285 286 286 284 286 291 289 290 288 289 289 290 290 289 289 289 288 288 288 288 289
294 294 295 295 287 291 288 289 291 291 286 289 290 290 290 291 294 294 288 293 293 295 294 294 294 292 286 290 290 292 293 292 291 292 290 290 294 293 294 292 292 288 286 286 287 286 286 286 284 285 282 283 279 283 283 282 282 281 282 286 289 289 290 290 290 289 288 289 286 284 285 290 292 289 289 287 288 287 289 289 289 289 289 289 288 288 289 289
Wind_Speed
2 1 1 2 2 2 2 3 4 5 5 6 6 7 7 7 8 8 9 9 10 10 11 11 11 11 11 11 11 11 11 3 1 1 1 2 3 7 8 6 5 2 3 2 1 3 2 3 3 4 2 1 3 1 1 1 2 3 0 1 2 3 2 6 4 4 3 3 4 3 1 1 2 2 2 3 3 3 6 4 6 10 11 8 4 3 4 6
2 1 1 1 2 2 2 3 4 4 5 5 6 6 6 6 7 7 7 8 8 9 10 10 11 11 11 11 11 11 7 2 1 1 2 4 6 7 6 4 3 4 4 1 2 1 2 2 2 2 1 2 2 2 2 2 3 1 2 2 2 2 3 2 2 4 3 3 2 1 2 3 1 3 3 6 2 1 3 4 5 8 8 8 8 8 8 9
2 2 1 1 1 2 2 3 3 3 3 4 3 4 5 5 6 5 6 7 8 8 9 10 11 11 11 11 11 9 4 1 1 2 2 5 6 6 1 2 1 2 3 1 0 1 1 3 2 1 3 3 4 2 2 3 3 2 3 2 2 3 3 2 2 4 2 1 1 1 2 3 1 2 2 4 9 4 1 1 3 4 2 8 7 8 8 8
3 2 1 0 1 1 1 1 2 2 2 3 3 4 4 5 5 6 6 7 8 9 9 10 10 11 11 10 10 5 2 2 2 1 2 6 6 4 2 3 3 3 4 7 2 3 3 6 4 1 2 3 2 1 0 3 3 2 2 2 4 4 3 5 6 2 2 2 1 1 2 3 2 2 2 3 7 3 4 7 5 4 4 4 5 7 7 9
3 2 1 1 1 0 1 1 1 1 2 2 3 3 3 4 5 6 7 8 9 9 9 10 11 11 11 10 8 1 3 5 2 1 4 7 7 1 2 2 0 1 2 7 6 5 2 2 1 3 2 2 1 1 3 1 4 2 3 4 5 3 2 6 4 2 2 1 3 2 4 1 2 2 4 4 4 3 4 6 6 6 5 5 5 6 7 9
3 3 2 2 2 1 1 1 2 1 2 2 3 3 4 4 5 6 7 8 9 9 10 10 10 11 11 10 3 1 2 3 1 1 7 6 5 3 4 5 5 6 6 3 2 2 2 2 1 1 1 0 2 1 3 1 2 1 3 0 1 1 3 3 4 4 5 4 4 4 1 1 3 1 0 4 3 4 3 4 5 5 4 3 4 5 8 9
5 4 4 2 3 3 2 2 2 3 2 3 3 3 4 4 5 6 7 8 9 9 10 10 10 11 12 7 2 2 2 2 1 2 6 7 3 4 3 3 0 1 1 4 2 2 2 3 1 3 2 2 1 2 2 0 1 3 1 2 3 3 4 3 2 4 5 4 4 1 2 5 4 4 2 3 4 5 5 5 5 5 5 4 6 9 8 8
6 6 4 3 3 3 4 3 3 4 3 2 4 4 4 4 6 6 8 8 9 9 10 10 10 10 10 1 1 1 1 2 3 2 4 6 4 3 2 3 3 1 1 1 4 4 3 3 2 3 1 2 3 3 1 2 1 1 1 3 2 1 5 2 3 5 5 7 4 2 4 3 3 0 5 3 4 4 4 3 4 4 6 7 9 9 8 7
7 7 5 5 4 3 4 4 4 4 3 3 4 4 4 5 6 7 7 8 8 9 9 9 10 10 3 2 2 4 2 2 1 2 2 1 2 2 2 3 1 2 3 2 3 2 4 1 2 4 1 3 3 3 1 3 2 1 2 1 2 3 3 4 5 8 7 2 3 4 4 1 3 4 5 4 4 4 3 4 4 5 8 8 8 8 7 7
9 8 7 5 5 4 4 5 5 5 4 4 4 4 4 6 7 7 7 8 8 8 7 8 10 9 2 2 2 4 0 0 2 1 1 1 1 3 3 1 4 6 4 2 2 4 2 3 1 6 5 6 2 1 1 2 2 0 0 2 4 3 4 2 3 1 1 4 4 4 2 4 3 3 3 3 5 5 4 5 5 5 7 6 5 5 4 5
10 10 8 8 6 5 5 5 5 5 4 3 4 4 5 6 7 7 7 8 7 7 6 6 8 4 0 1 4 6 2 2 1 1 1 1 2 2 2 1 1 3 2 2 3 1 1 5 4 4 1 2 6 3 2 2 1 2 3 5 6 4 5 3 4 2 1 3 4 5 3 3 2 2 3 3 5 3 4 5 4 5 5 5 5 4 4 4
11 10 10 9 8 6 5 5 6 6 5 4 4 4 5 6 7 8 8 7 6 6 5 4 5 2 1 0 6 3 2 2 1 1 1 1 3 2 1 2 2 2 4 4 3 1 1 4 6 2 0 5 2 3 2 3 1 1 2 6 4 5 5 3 3 2 3 2 2 2 5 5 4 5 3 4 3 4 4 4 4 5 5 4 4 4 4 5
12 11 10 10 9 7 7 6 6 6 6 6 4 5 6 6 7 8 8 6 6 5 4 3 2 1 1 5 3 3 1 1 3 5 6 5 6 3 3 2 3 2 2 2 4 2 1 4 2 4 2 1 3 2 5 2 1 1 2 3 9 4 4 2 1 1 4 2 2 3 6 6 5 6 3 0 4 5 3 3 4 3 3 3 3 3 4 5
11 9 11 10 8 6 7 7 7 7 7 5 4 5 6 7 8 8 7 6 7 3 0 1 2 2 2 4 2 2 1 2 2 5 4 1 1 3 3 4 4 3 3 6 5 2 4 1 4 8 2 1 3 3 6 2 2 3 1 2 4 4 1 2 3 4 2 2 2 4 6 3 7 5 4 3 4 7 1 3 2 2 2 2 2 2 3 4
12 11 10 7 7 5 6 7 8 7 7 5 5 4 7 8 7 6 4 4 1 4 2 4 2 2 4 2 3 2 2 1 3 2 2 1 6 5 4 4 8 7 6 6 4 1 1 4 6 4 3 1 5 5 2 1 2 1 3 4 2 4 2 2 4 3 3 3 1 4 7 2 9 4 5 3 0 5 4 3 2 2 2 2 2 2 2 3
11 12 13 10 9 6 6 7 7 8 8 6 6 5 4 6 5 3 2 2 3 2 1 2 2 2 0 5 2 2 2 4 4 2 1 2 1 3 4 6 3 4 2 5 2 1 3 4 4 2 4 2 5 3 2 2 3 1 4 5 4 1 3 4 3 1 2 2 1 4 4 5 6 4 3 3 1 3 4 4 3 2 1 1 2 2 2 2
13 12 12 11 10 9 6 6 8 9 8 9 6 4 2 2 1 1 2 1 2 2 2 1 1 1 6 2 3 3 4 2 2 1 1 3 1 8 8 5 4 6 6 5 2 1 5 2 1 1 2 1 1 4 3 5 5 5 1 5 1 4 1 4 3 3 2 2 4 1 5 4 6 5 1 2 1 3 4 4 3 2 1 1 1 1 2 2
14 13 10 11 10 10 9 7 10 7 10 5 3 3 1 0 3 2 2 1 1 0 2 1 3 2 6 3 5 3 3 3 2 2 3 2 1 4 2 4 1 5 7 7 3 3 3 2 2 2 3 4 6 6 6 8 5 3 5 4 5 4 7 7 3 3 2 2 5 2 6 10 7 6 2 2 1 3 4 3 3 3 2 2 2 2 3 3
11 10 9 9 8 10 10 9 9 9 9 3 5 3 4 1 0 0 2 1 2 2 3 5 5 8 4 4 4 4 1 2 2 1 5 6 2 3 5 4 5 10 6 5 3 2 1 3 1 3 8 8 10 11 10 6 1 3 5 5 3 5 5 5 3 2 2 6 7 7 9 10 6 8 5 3 2 3 4 4 4 4 3 3 3 3 2 3
14 14 14 12 12 9 9 10 9 11 5 4 1 1 2 2 2 3 1 1 7 5 2 2 6 5 3 1 4 3 1 2 4 1 2 1 5 6 5 2 4 2 6 7 5 4 1 7 7 9 10 10 12 14 9 4 3 5 2 2 6 7 10 1 1 3 1 3 10 12 12 12 14 5 5 5 4 4 5 5 4 4 4 4 3 3 3 3
15 15 14 13 10 12 10 10 11 7 5 3 3 2 4 6 4 5 4 7 9 1 4 3 7 2 1 4 4 9 6 2 3 4 4 2 3 10 5 6 6 6 4 3 4 2 3 8 11 12 3 7 9 6 3 2 2 4 4 5 6 5 10 2 1 3 1 4 3 2 7 11 12 3 3 4 5 6 6 6 5 5 4 4 5 5 4 4
15 14 14 12 12 12 10 11 11 8 5 4 3 4 3 3 2 2 2 6 5 11 6 2 3 6 3 1 1 2 2 3 3 5 3 4 7 9 6 8 9 10 5 5 4 4 7 11 11 6 6 5 4 5 5 8 6 3 6 4 5 8 5 5 2 2 2 3 9 2 8 11 7 3 3 3 4 2 2 3 3 5 5 5 5 5 5 5
15 14 13 13 13 12 11 11 10 7 4 5 6 5 4 2 2 2 2 0 7 2 6 5 6 12 5 1 3 2 7 8 9 9 9 6 6 5 9 8 9 4 6 10 10 6 6 9 12 6 6 7 4 4 6 4 3 6 5 5 9 1 2 5 3 2 3 4 2 2 6 10 2 2 3 2 2 1 1 2 1 2 3 4 5 4 5 6
16 14 13 12 13 13 12 11 10 6 6 9 7 9 1 1 0 2 2 5 5 3 7 4 7 3 11 8 7 11 11 4 3 11 4 8 10 5 6 11 8 6 10 13 14 11 9 4 3 9 7 8 7 5 7 6 8 7 8 9 10 5 8 9 2 1 2 4 1 5 9 12 11 9 5 4 2 1 1 1 1 1 2 2 2 0 0 4
16 15 14 13 14 12 12 11 6 5 5 8 11 11 6 0 1 2 2 4 3 5 3 1 4 6 3 5 4 12 6 2 6 3 7 10 9 6 5 2 4 10 10 11 6 7 8 4 5 9 7 7 6 5 9 8 9 5 10 13 12 8 9 4 1 2 5 5 5 3 6 6 2 4 3 5 3 3 2 3 4 4 3 3 4 4 2 0
17 16 15 15 15 15 13 6 5 6 8 9 4 5 8 4 2 1 1 1 9 4 4 7 9 4 6 5 6 5 7 9 3 0 5 2 3 3 6 5 3 9 9 7 7 4 3 4 6 7 8 7 8 8 6 10 7 5 4 10 14 12 6 4 5 4 5 6 2 2 8 5 3 2 5 5 4 4 4 5 6 6 6 6 6 6 6 5
18 17 16 17 17 15 9 7 7 11 6 8 7 4 3 6 2 2 2 3 10 8 9 2 2 1 1 3 8 7 6 6 1 4 4 2 7 2 7 7 3 3 3 4 2 7 5 5 4 3 7 7 6 8 7 11 6 7 2 1 5 6 8 9 8 9 4 4 2 2 4 7 7 1 4 4 5 5 6 8 8 8 9 9 8 7 6 6
18 17 17 18 18 18 2 6 11 11 7 2 1 6 6 5 4 2 2 5 6 6 5 4 1 3 1 2 3 4 4 4 6 5 3 1 1 3 5 8 11 10 5 6 11 3 7 7 8 8 8 6 10 5 9 12 8 1 2 1 4 6 6 6 6 6 2 3 6 6 4 4 7 4 4 5 5 8 11 11 12 12 11 11 10 8 7 6
19 18 19 19 18 18 5 5 8 10 2 3 4 7 6 6 3 2 1 8 2 4 3 6 3 3 4 1 3 3 2 3 1 4 3 3 5 1 8 5 3 7 1 5 10 3 2 2 6 8 8 9 4 3 5 11 10 2 4 8 6 6 5 3 4 4 2 4 9 9 10 7 9 6 5 4 6 11 12 14 14 14 15 13 11 10 9 6
19 20 20 20 14 13 8 2 7 1 5 5 6 8 9 7 3 5 4 10 5 3 3 3 4 6 7 12 5 3 4 2 2 3 2 4 3 2 5 1 4 6 5 0 3 3 1 1 3 3 8 2 6 5 3 3 4 10 6 9 7 6 5 3 2 1 1 7 10 7 12 9 7 7 9 7 8 5 8 9 9 12 12 12 11 11 10 8
21 20 21 20 13 7 4 9 8 3 5 6 7 11 8 1 4 6 12 6 4 3 2 4 4 3 14 15 9 1 3 1 3 7 6 2 4 3 5 5 3 3 1 1 4 2 2 2 3 1 3 4 5 7 6 2 3 5 3 5 6 3 3 2 1 2 5 7 3 5 2 6 10 3 8 4 5 4 11 15 17 17 17 15 13 11 10 9
21 21 23 18 8 9 14 8 8 6 6 7 9 8 8 6 3 11 9 8 5 7 7 6 1 6 12 4 4 7 8 4 4 7 8 9 9 11 12 11 10 6 6 9 7 5 4 7 2 3 3 5 6 8 4 4 2 3 5 7 7 3 1 5 3 5 10 7 2 3 2 3 16 8 4 2 4 4 6 7 16 18 18 16 13 12 10 8
22 20 21 16 13 9 10 3 9 8 7 7 7 6 7 7 13 15 5 6 2 5 3 4 8 8 8 5 3 3 4 6 3 3 3 1 5 9 2 3 7 1 4 8 8 4 4 4 2 4 3 6 10 10 6 3 8 6 10 9 7 5 5 5 4 2 4 1 1 2 2 8 4 7 11 7 4 3 2 2 4 16 18 17 14 12 10 8
22 20 15 14 13 10 8 7 8 12 11 6 9 6 3 8 17 12 13 6 1 4 6 4 7 6 11 8 5 9 5 1 9 5 5 6 6 8 8 9 6 5 3 3 8 9 6 4 9 12 7 10 12 12 10 6 13 11 2 10 6 6 4 5 5 6 3 1 3 2 3 4 5 3 3 2 2 2 3 2 1 8 12 13 11 9 9 10
22 18 15 11 13 12 10 9 11 14 10 9 8 12 14 15 13 12 11 9 2 2 3 4 9 8 6 3 1 5 1 4 5 8 6 8 9 9 11 13 10 4 3 6 4 2 11 6 4 3 3 10 14 0 6 8 5 3 1 3 0 7 0 4 1 1 1 1 3 4 6 1 4 3 1 1 1 1 2 2 3 8 8 9 9 12 11 10
16 13 14 9 13 14 12 10 12 14 12 11 12 12 18 17 9 7 6 8 5 8 8 6 4 7 3 6 1 10 4 1 8 4 2 8 1 8 4 4 11 18 10 10 6 6 3 7 4 2 1 5 4 4 2 4 8 8 6 8 6 5 4 4 2 3 1 1 9 5 5 5 2 3 3 2 2 3 2 5 5 10 11 11 11 11 11 10
13 12 14 16 14 15 16 14 13 13 11 12 13 15 15 8 4 6 4 12 7 16 10 10 9 9 8 8 8 9 7 5 6 8 6 5 6 10 5 8 6 11 14 8 3 3 4 2 1 4 6 1 2 3 4 4 1 10 7 8 4 1 4 2 5 2 2 6 5 5 10 7 6 7 5 4 5 6 7 8 8 9 10 13 12 11 12 12
15 12 15 15 18 17 16 15 15 11 12 14 16 18 2 11 5 5 3 7 7 10 7 13 4 11 8 9 9 10 9 10 9 7 6 11 5 11 11 5 10 15 18 8 4 4 4 4 4 2 3 2 1 4 3 3 5 3 1 4 8 5 5 5 1 6 4 6 5 6 7 10 11 8 4 7 10 12 11 9 9 12 13 15 13 13 11 10
12 12 13 21 14 19 18 18 16 15 12 11 15 18 11 9 3 4 6 4 5 11 12 12 8 8 6 10 5 8 13 10 12 11 6 7 7 8 14 10 7 13 14 9 5 2 2 7 2 1 2 3 2 6 11 8 2 1 2 4 4 3 3 7 6 1 1 7 1 4 6 7 10 9 13 13 15 14 12 10 13 16 18 16 15 15 14 14
9 4 10 10 18 17 16 16 14 14 13 19 15 16 4 12 5 4 6 10 6 9 9 10 9 5 7 6 10 8 10 7 13 9 9 6 9 3 9 7 6 9 12 12 5 2 5 0 6 4 3 4 7 9 12 15 12 6 6 8 3 2 3 3 1 3 3 4 5 8 8 3 5 6 13 14 13 13 16 16 13 14 16 16 16 16 14 13
4 4 2 14 21 20 18 12 12 16 14 10 12 12 6 9 6 4 8 4 1 5 2 7 8 10 7 6 5 2 7 9 8 8 8 6 10 3 10 10 7 8 6 3 6 5 3 5 8 6 5 9 4 2 5 1 7 10 15 15 16 10 6 6 8 5 1 3 5 3 11 1 2 2 1 0 3 4 12 13 12 13 14 15 14 15 13 14
8 6 3 9 21 24 20 17 9 8 12 15 16 12 9 4 6 10 6 4 2 3 3 3 2 5 6 8 6 8 8 7 9 8 7 9 10 6 1 2 5 13 12 9 11 2 0 2 1 6 6 7 1 2 1 3 3 3 4 7 11 9 7 6 10 5 2 2 4 1 4 6 3 2 2 1 1 1 5 6 8 10 13 14 12 11 10 10
9 9 4 8 20 23 19 16 15 11 10 14 1 3 5 2 5 4 10 5 5 1 3 3 6 7 5 4 4 7 11 7 12 12 5 6 3 2 3 3 7 10 7 2 6 5 5 2 5 1 3 0 1 1 1 1 2 3 6 2 2 11 11 8 3 4 7 5 4 2 5 4 1 1 2 1 2 3 3 8 9 7 8 10 12 13 13 10
2 2 2 3 8 14 18 15 16 17 15 2 7 11 2 4 7 6 9 9 8 6 7 5 1 6 3 4 5 10 10 3 9 7 2 4 5 5 2 5 11 6 9 7 8 8 7 6 5 4 2 2 2 2 3 2 3 5 6 7 7 2 2 2 4 1 3 10 7 6 15 2 3 0 0 1 2 2 5 6 8 9 8 10 12 12 9 9
4 1 1 3 2 4 14 12 17 15 16 14 10 16 9 4 5 11 11 10 5 4 5 7 8 6 4 3 6 2 8 10 2 7 2 5 4 1 3 5 5 8 1 0 7 8 6 3 9 11 13 11 11 12 13 10 10 5 1 2 9 13 10 4 6 5 8 2 11 10 13 1 1 0 4 2 2 3 4 5 5 5 7 10 11 11 11 11
3 2 1 2 1 2 2 5 8 16 18 16 12 12 13 11 2 2 11 11 11 4 5 4 2 6 4 5 5 7 9 5 4 3 6 5 3 0 1 0 3 4 2 6 5 8 4 1 7 12 10 9 2 2 4 8 7 8 9 9 12 12 13 12 3 4 11 4 10 16 10 4 5 5 6 7 5 6 5 7 9 9 9 9 9 10 10 11
1 5 4 3 2 3 0 1 4 11 17 19 13 8 16 17 7 1 7 8 10 12 3 4 4 8 5 9 11 10 9 9 2 3 9 8 2 2 2 1 4 3 5 2 5 4 1 6 13 10 8 1 3 2 2 2 10 13 11 11 10 13 13 14 13 13 6 3 14 13 8 11 8 9 10 9 6 5 7 6 7 5 9 11 12 11 11 9
3 1 5 2 3 5 9 8 7 11 9 13 10 6 14 16 13 9 3 5 3 9 8 1 5 15 14 16 11 6 8 10 8 9 4 2 6 2 4 3 3 1 2 0 3 3 4 7 8 8 12 6 2 5 1 2 1 2 10 14 16 14 12 17 16 14 8 12 17 5 12 12 13 11 13 10 11 10 10 13 13 12 8 8 9 12 14 15
2 1 1 0 3 2 8 3 8 9 12 14 8 12 12 17 18 14 6 5 5 6 14 8 14 14 12 11 12 8 10 5 8 5 5 6 8 6 3 3 3 1 1 1 1 0 3 6 1 4 8 7 6 5 3 3 0 3 5 7 9 11 14 14 15 17 15 15 16 12 7 12 10 4 13 13 7 6 3 4 4 4 10 11 11 12 14 13
4 5 3 1 2 2 1 4 7 10 9 11 10 9 10 13 18 8 0 8 5 5 7 13 10 11 11 11 11 11 14 10 7 12 5 9 3 3 5 2 4 2 1 4 3 3 3 2 8 4 4 6 8 5 5 6 4 7 11 11 7 2 2 12 13 12 11 11 11 11 12 17 3 8 7 4 5 4 4 6 7 5 5 8 10 11 12 14
1 1 2 7 4 2 1 4 5 9 6 1 7 5 8 11 13 10 4 2 6 7 8 15 9 7 3 8 9 6 5 8 7 5 5 11 12 5 5 3 8 9 5 4 3 0 2 2 3 4 6 5 4 8 6 4 4 10 15 17 13 8 12 12 6 9 9 12 16 15 14 13 5 5 4 3 4 6 6 5 5 4 7 9 10 10 12 13
2 1 1 6 5 3 5 3 6 6 9 8 8 7 8 12 3 8 1 1 4 2 3 7 8 8 0 7 9 8 8 11 7 7 4 3 6 2 4 6 8 9 6 4 3 5 4 4 5 4 5 2 2 1 7 6 1 7 19 13 10 16 15 9 13 14 15 15 13 11 14 13 5 9 8 4 6 4 6 7 6 4 6 8 10 11 12 12
Wind_Direction
129 122 86 78 75 44 36 42 32 32 17 10 5 3 359 1 4 4 351 347 348 342 335 335 332 330 333 335 338 340 332 317 289 302 210 61 332 314 304 285 263 232 221 238 170 218 109 44 46 348 117 19 2 275 19 72 13 247 156 128 145 73 214 150 172 167 33 126 131 159 22 271 258 313 75 206 195 221 290 282 89 88 77 81 88 21 4 357
144 127 67 37 53 35 17 30 35 28 17 10 5 356 354 355 359 357 346 337 337 332 331 329 327 327 326 333 339 347 338 336 346 68 32 24 339 324 305 279 200 199 233 233 84 104 162 103 73 13 137 105 289 43 258 78 297 2 131 275 89 193 48 166 67 135 170 99 71 111 201 265 344 313 12 312 175 8 314 106 110 118 119 85 51 27 21 19
170 142 103 54 50 44 19 16 25 20 18 9 356 352 347 349 339 347 339 335 329 331 329 324 325 325 327 332 340 354 325 345 222 62 70 19 328 329 289 168 228 213 258 199 197 97 48 99 111 196 30 112 9 75 305 50 308 63 277 103 100 140 94 231 176 156 254 56 174 213 145 253 34 268 10 286 312 292 3 85 150 153 65 40 29 23 14 24
185 170 143 101 120 74 5 10 11 3 353 10 335 345 344 338 332 338 338 334 330 329 326 326 323 326 324 330 344 337 267 249 166 94 86 351 332 331 162 124 102 109 88 61 90 93 95 108 81 359 117 68 94 253 303 26 288 100 251 94 121 155 198 178 212 229 170 213 263 260 142 241 170 226 276 314 297 206 103 51 359 359 18 39 31 19 14 24
198 192 186 193 206 223 11 298 330 302 324 326 344 327 335 335 334 330 337 331 331 326 326 324 326 324 326 328 347 235 319 262 110 286 36 341 325 273 131 70 221 276 97 135 113 82 98 80 118 48 348 102 46 158 52 50 9 183 25 52 107 132 234 127 183 108 171 197 222 158 254 18 97 219 228 247 264 325 29 6 30 56 49 38 21 18 26 30
210 217 223 213 227 248 285 263 264 292 287 309 319 334 322 335 335 330 336 334 325 328 325 327 326 328 325 328 330 200 279 342 147 139 348 330 307 96 74 89 89 110 124 87 91 93 182 88 203 115 115 159 34 321 78 350 342 235 137 253 225 162 295 126 173 180 184 169 197 236 209 98 219 235 230 238 311 41 31 32 49 59 52 50 40 34 41 36
223 222 221 237 230 245 251 253 247 263 277 291 295 318 314 326 332 333 334 330 327 329 332 330 331 331 333 317 208 255 245 291 98 67 0 340 48 87 81 82 159 83 104 120 118 161 74 121 259 113 122 107 143 95 97 333 236 290 74 161 178 189 240 143 217 133 205 203 245 108 104 251 186 241 121 117 60 73 63 55 67 64 62 49 50 40 39 33
224 233 221 233 239 236 248 240 241 246 258 270 284 294 313 325 336 333 334 327 328 331 335 334 336 336 350 321 260 186 340 248 85 23 328 344 43 59 20 61 35 86 168 294 157 152 156 163 174 169 85 308 118 187 114 208 173 220 205 156 121 231 244 225 233 221 226 244 257 179 233 234 200 129 152 83 107 101 86 77 65 59 58 48 44 36 30 28
226 227 223 233 239 237 237 246 236 246 255 279 272 293 314 336 328 332 329 328 330 331 336 338 337 338 309 273 183 298 236 65 28 19 346 7 61 31 320 175 337 173 111 90 337 158 210 134 137 217 327 176 171 147 174 276 185 202 55 168 176 231 246 243 251 245 238 238 173 201 235 123 139 136 88 93 114 110 112 83 55 56 52 43 37 30 26 23
222 220 226 221 219 227 234 235 239 243 248 261 276 297 309 327 327 331 331 329 328 330 332 340 346 328 329 176 121 272 34 260 92 15 19 223 140 113 53 48 156 143 163 67 140 155 201 163 237 162 102 78 179 94 22 236 25 277 139 256 272 310 315 164 257 229 164 256 167 241 156 120 97 268 145 100 127 137 128 79 59 63 67 57 48 39 25 28
224 226 229 225 229 234 238 238 237 244 251 263 280 294 309 319 326 328 328 325 328 323 329 338 347 327 284 185 241 260 111 189 78 107 135 204 133 174 124 137 7 150 115 125 191 329 41 151 128 121 266 88 155 124 267 64 121 70 308 270 233 236 244 260 242 282 261 202 201 232 120 134 149 253 62 101 142 182 127 86 70 66 63 55 48 41 30 29
223 225 234 229 221 238 234 241 241 244 247 261 277 303 303 316 320 326 323 326 320 329 321 338 340 341 291 238 230 250 347 20 132 122 89 148 73 44 1 339 291 188 193 180 173 175 292 138 169 142 311 165 183 127 154 143 349 39 310 297 298 286 260 61 356 25 300 123 195 193 142 162 174 138 86 85 150 165 128 99 75 62 55 47 36 43 34 28
221 220 229 227 220 217 247 241 238 240 244 252 275 295 306 312 316 321 320 324 333 326 24 2 334 279 263 253 226 43 312 134 127 111 79 86 112 88 66 36 69 46 339 227 145 124 129 143 216 107 63 205 121 301 110 201 57 210 125 342 295 275 239 86 303 231 284 112 132 200 253 143 135 115 71 12 182 175 152 81 64 64 57 49 45 45 49 31
221 214 228 242 199 187 253 249 242 238 239 251 274 297 305 313 315 316 317 311 339 314 353 1 340 251 221 259 68 345 21 140 193 111 80 276 130 56 63 66 64 58 15 81 70 100 119 271 86 95 62 28 135 169 153 104 226 273 48 239 287 301 216 114 17 332 256 79 213 228 276 146 152 147 42 7 233 229 195 95 81 66 62 62 51 48 55 48
217 204 235 179 169 149 238 247 241 234 235 251 286 290 309 317 314 308 298 314 317 16 324 295 260 207 214 258 93 78 160 225 168 80 359 241 126 100 81 81 55 48 63 74 105 62 116 144 128 150 100 314 116 175 154 200 63 11 271 221 151 248 132 119 81 2 277 109 202 236 260 282 163 141 20 11 65 192 155 128 101 71 51 46 55 65 65 59
214 208 219 199 180 164 226 237 240 246 243 284 265 290 334 321 305 275 333 338 349 300 271 236 75 312 212 252 116 139 214 201 172 36 27 294 313 129 111 96 115 82 105 63 56 123 58 71 67 30 124 130 185 193 213 242 193 86 230 267 239 209 290 294 114 59 359 288 80 245 285 120 190 150 55 35 141 174 148 141 120 104 91 70 67 61 60 84
215 221 230 184 182 175 194 226 234 245 265 273 305 303 315 295 237 286 81 10 328 233 245 160 141 204 258 68 129 218 190 127 4 165 85 44 298 136 131 106 85 91 85 116 67 129 19 89 279 194 8 216 140 171 225 239 252 215 144 253 331 249 199 251 101 175 26 287 196 98 256 283 107 129 100 73 97 181 155 141 138 133 97 85 87 88 77 65
211 213 197 189 181 172 180 200 234 242 255 267 268 39 289 317 332 243 181 162 273 272 88 130 222 260 232 87 225 174 45 124 131 109 29 4 116 119 87 121 81 116 125 112 18 186 330 136 270 216 145 152 180 188 203 242 231 214 179 221 232 215 236 276 255 93 282 162 266 215 255 263 152 147 131 85 127 188 148 152 150 157 150 134 122 98 78 67
213 218 218 217 196 181 166 204 228 236 252 278 54 30 28 322 317 251 64 297 185 164 206 183 178 206 266 172 80 85 73 73 89 231 140 136 73 92 80 70 124 145 152 188 145 163 118 101 227 185 219 177 197 203 208 236 45 256 190 233 272 254 219 233 218 78 333 254 246 233 251 259 191 158 144 146 152 171 147 157 164 161 150 138 128 105 99 82
209 212 212 199 185 180 171 211 223 232 239 225 153 171 209 190 175 175 136 234 234 236 22 166 190 28 66 232 144 45 118 206 156 23 132 295 153 129 74 143 82 32 151 198 131 177 350 194 195 212 216 196 203 207 229 54 89 82 123 205 241 256 267 135 179 99 318 279 247 253 259 259 263 163 144 151 159 169 176 182 176 166 152 146 131 130 114 103
212 210 210 201 181 165 184 211 227 235 224 201 192 213 209 193 165 239 175 229 229 259 222 223 214 228 2 99 122 159 138 159 1 150 158 123 284 157 165 148 164 187 187 19 126 80 222 218 226 225 217 202 210 196 107 128 113 228 236 231 247 209 264 271 129 97 149 233 276 194 255 256 255 125 131 160 183 199 191 184 178 163 160 145 151 145 143 124
216 211 212 195 174 162 185 214 230 230 219 187 189 218 312 272 344 332 350 264 193 228 238 230 22 260 126 187 157 274 348 130 175 164 164 198 172 207 158 196 174 203 117 132 120 165 202 219 233 213 83 84 75 174 200 220 212 176 243 234 260 253 264 271 228 140 183 183 264 173 257 261 246 118 135 181 204 196 223 248 188 169 163 162 159 152 144 143
215 215 204 180 171 163 187 217 233 225 214 180 207 216 240 256 296 270 257 189 268 109 205 186 217 229 207 56 188 215 199 196 200 177 184 198 135 260 145 182 196 133 144 179 193 180 226 233 237 108 135 129 94 161 185 187 229 223 203 225 239 249 186 262 127 121 170 232 332 16 283 270 182 162 164 146 225 175 315 281 273 278 188 168 160 153 149 138
215 212 207 183 165 169 190 212 233 232 222 207 223 211 94 19 310 303 250 262 302 228 203 201 217 190 203 178 177 177 199 220 160 190 143 178 173 142 170 194 153 152 192 193 209 200 214 56 8 148 165 186 177 163 171 195 227 211 225 233 250 206 224 247 318 135 109 233 288 289 277 272 231 202 183 139 129 152 175 225 251 257 310 346 4 339 126 135
214 210 205 180 168 162 195 206 216 213 183 211 240 240 241 255 340 342 289 288 213 258 72 267 174 231 171 51 137 184 210 14 231 43 163 191 141 141 201 75 149 208 198 190 229 244 246 75 125 137 169 189 170 180 200 203 242 211 214 229 241 242 243 189 98 228 251 245 167 231 287 260 98 233 206 129 165 184 149 218 202 192 192 209 197 179 148 75
213 208 201 176 165 175 186 197 215 172 177 216 218 224 219 182 238 299 276 283 272 153 56 230 145 223 121 158 131 166 74 229 68 158 144 243 6 173 103 185 206 220 164 160 207 248 254 115 166 159 167 180 203 219 193 197 238 238 240 205 230 241 239 181 183 171 243 251 101 290 231 272 140 166 171 153 175 174 156 221 202 192 194 200 198 180 177 168
207 204 190 172 174 175 168 222 146 133 178 248 220 174 162 149 132 245 222 240 270 167 171 22 217 177 352 110 145 126 203 206 136 98 144 360 195 339 210 169 119 28 100 134 28 228 149 157 152 161 158 174 189 224 187 187 213 240 65 283 206 206 204 207 197 212 257 45 95 207 237 262 280 208 89 133 181 194 197 205 205 200 195 198 193 186 180 174
202 197 182 175 182 179 250 130 149 177 198 93 17 126 131 134 127 264 231 286 262 92 129 204 231 349 11 124 328 208 0 74 146 200 357 312 310 130 260 186 191 167 165 165 228 59 174 164 182 178 194 183 215 226 129 187 198 296 18 215 163 196 202 172 204 220 276 319 253 177 156 250 240 203 116 154 191 212 215 197 199 197 196 194 192 187 182 178
201 193 180 178 187 190 201 180 181 206 201 97 103 119 116 131 204 200 172 242 118 89 341 98 267 55 72 128 113 77 165 360 327 61 296 48 21 268 207 193 191 132 110 222 238 113 323 226 203 187 172 210 149 20 179 169 215 109 131 91 86 82 75 160 209 208 192 230 244 200 178 237 263 192 176 165 243 231 206 192 194 194 190 188 188 184 183 176
200 191 178 181 179 199 203 235 217 152 95 119 124 122 122 127 146 192 143 247 141 185 71 99 178 167 153 152 191 72 175 42 38 133 79 167 116 51 28 332 126 143 191 321 298 36 6 240 336 189 210 146 103 53 15 12 42 130 165 108 94 82 94 94 74 191 199 243 244 195 185 216 283 190 202 189 216 203 147 171 188 187 186 191 190 184 181 178
194 185 178 175 185 177 154 220 203 120 117 126 150 132 132 111 198 163 223 207 23 86 88 166 147 143 157 161 187 139 66 38 145 156 136 148 141 60 152 96 86 118 68 255 248 129 160 96 175 213 61 104 102 92 41 49 144 160 155 143 127 92 139 153 117 219 238 254 91 17 209 215 230 214 216 180 79 141 163 178 182 182 187 187 186 185 181 177
192 185 179 178 168 153 193 207 162 119 140 161 153 145 162 159 301 204 223 64 256 170 173 155 114 181 178 19 40 164 158 94 165 183 163 177 169 177 191 197 152 174 232 204 223 90 235 204 128 96 268 149 152 106 80 104 209 210 151 156 186 173 139 212 167 221 213 240 95 47 142 205 238 243 12 45 176 164 208 185 181 179 182 184 185 182 176 174
190 183 179 185 171 200 196 105 135 141 137 176 147 159 170 174 216 220 236 170 228 126 182 60 157 170 162 140 157 121 3 172 155 177 84 28 186 208 236 287 190 202 245 170 200 153 238 92 171 174 112 243 178 166 144 175 194 193 182 176 182 194 197 246 195 306 304 196 23 55 128 258 354 250 252 264 99 100 119 24 184 178 176 180 178 176 173 174
191 180 183 187 188 192 182 142 147 139 146 160 146 151 254 196 228 204 202 209 258 5 80 116 107 86 162 183 172 158 155 273 164 171 201 157 196 203 211 231 212 213 78 118 199 187 230 223 211 150 224 154 201 212 178 152 163 198 197 183 209 190 170 209 188 220 236 76 104 246 166 237 167 197 3 344 342 24 66 41 49 164 173 172 165 158 165 179
188 185 187 182 195 195 176 149 146 148 146 158 168 178 191 219 230 194 200 176 97 77 86 122 132 139 185 279 122 227 340 166 197 132 191 163 200 206 191 202 204 195 120 183 213 135 225 265 44 155 356 148 189 77 90 101 112 136 233 16 341 223 170 253 24 312 70 181 182 175 231 254 230 115 103 13 142 86 114 104 157 157 153 147 157 177 185 186
178 192 183 193 195 184 171 158 157 152 160 173 178 195 205 205 210 158 217 141 119 155 133 106 95 173 170 185 88 203 228 256 171 162 216 212 324 208 177 189 185 195 173 197 144 196 80 234 91 143 85 188 172 130 148 175 198 172 145 204 198 12 111 100 127 87 30 306 254 146 247 235 305 212 133 174 128 176 144 159 175 167 166 171 184 187 188 186
193 181 196 197 195 175 175 163 160 164 171 185 191 209 218 232 180 157 165 165 166 126 154 165 205 174 178 202 191 192 183 96 168 182 201 140 267 211 197 227 189 189 222 183 213 239 180 165 112 148 194 269 19 299 75 44 89 106 217 199 73 7 351 203 245 119 217 252 266 149 219 223 145 248 116 166 198 199 198 182 185 177 172 185 194 190 191 188
187 197 208 201 190 169 166 163 160 179 186 191 202 217 145 221 218 190 105 97 119 158 159 206 208 175 198 174 197 172 183 195 161 179 210 171 259 152 173 192 195 202 205 238 238 188 186 238 145 324 46 71 321 195 108 34 348 227 167 124 164 192 208 182 230 241 193 236 265 203 223 245 206 211 131 202 198 202 200 180 174 188 191 198 194 195 192 180
191 182 209 208 155 164 170 162 174 180 194 212 195 219 209 231 103 176 198 151 134 157 204 205 195 206 176 192 143 167 163 192 155 191 168 195 229 171 185 175 200 200 200 166 208 143 226 225 146 19 140 133 185 194 194 174 186 59 142 185 2 315 220 161 207 306 177 254 141 256 127 249 185 217 175 195 199 196 176 172 198 198 195 192 192 190 189 186
181 172 239 133 151 157 155 166 178 193 196 203 203 222 114 202 191 195 199 173 190 182 212 193 204 169 194 199 151 165 200 205 163 194 211 162 201 132 191 187 195 174 191 187 204 86 197 60 244 108 310 144 185 198 212 172 171 161 185 186 170 224 351 332 352 202 215 240 230 282 272 228 176 198 184 193 194 186 172 189 194 197 199 197 193 188 186 183
192 208 253 155 155 154 155 169 211 205 206 218 221 220 195 201 154 196 193 253 145 348 139 192 170 195 157 131 229 137 158 187 186 191 203 206 197 210 202 186 142 146 119 94 239 190 197 177 216 124 172 213 214 54 348 241 199 188 178 187 184 157 169 188 227 95 235 214 240 181 257 95 164 54 295 36 25 164 187 184 184 193 193 191 193 193 182 180
168 225 197 168 148 149 158 182 208 200 213 212 208 205 206 91 173 176 183 203 293 169 344 118 308 185 141 193 141 171 163 181 191 198 217 209 202 245 121 142 169 142 149 181 198 120 269 65 140 191 207 202 358 12 277 333 333 323 273 210 187 194 162 182 230 179 75 251 39 299 339 264 70 25 42 339 339 309 197 195 202 190 194 196 199 193 187 186
196 203 359 174 159 157 170 194 193 204 213 228 224 27 132 190 184 168 178 196 192 189 135 189 189 154 247 148 164 169 170 194 169 202 150 210 251 201 82 142 133 150 137 135 80 200 89 181 200 220 56 73 171 211 177 339 20 255 245 320 196 208 196 216 235 133 197 148 182 204 249 271 110 6 341 272 259 289 269 197 211 199 196 196 185 181 181 167
93 101 199 337 186 173 175 190 193 206 215 107 203 229 61 196 170 168 206 186 182 159 197 167 336 230 163 129 141 180 185 192 214 172 242 175 189 91 138 149 163 166 176 196 167 170 168 198 185 179 194 169 189 187 208 139 225 237 221 187 224 235 61 65 91 64 252 203 176 177 248 203 196 99 191 245 209 217 223 208 194 192 197 193 188 183 170 166
115 93 32 243 100 229 200 185 193 196 209 209 191 211 207 227 226 204 191 202 174 167 150 216 195 136 179 182 183 148 197 206 88 221 97 198 147 94 33 190 212 184 179 303 106 151 198 165 175 199 200 197 197 203 209 193 202 198 229 176 193 199 170 151 221 186 233 158 161 217 243 73 56 168 251 220 213 227 226 208 204 213 183 183 189 182 175 173
162 175 171 266 214 79 282 358 208 190 199 204 214 217 212 218 209 250 192 214 189 199 210 114 26 159 160 151 176 198 201 237 182 182 177 202 176 357 131 30 169 172 191 160 147 150 184 147 213 218 215 231 237 50 345 108 118 195 201 177 196 203 193 203 231 193 216 141 204 223 228 227 192 215 219 220 196 206 207 196 198 201 207 197 188 179 174 177
94 166 158 214 10 232 69 298 201 189 203 189 207 174 207 213 199 33 190 212 197 196 179 176 160 170 212 192 204 212 199 194 202 131 197 166 71 105 51 75 91 87 145 133 189 110 112 208 219 219 240 151 145 44 338 235 184 208 196 206 193 195 195 200 205 219 116 141 250 239 182 231 234 175 209 214 190 228 223 196 197 211 204 192 186 177 178 175
191 230 154 252 164 202 208 235 202 194 206 188 212 184 209 208 199 207 166 242 153 179 179 323 210 210 189 195 186 205 170 202 168 202 119 92 114 160 84 1 154 71 59 83 316 179 166 218 214 180 241 140 156 134 156 86 45 261 219 211 202 197 188 202 216 219 155 210 237 207 152 212 233 193 199 204 191 202 195 199 203 200 175 160 163 174 181 190
90 93 130 73 178 290 222 234 176 185 191 189 202 210 206 204 207 203 168 152 161 200 194 203 211 209 207 192 187 199 171 177 219 199 160 162 163 139 131 58 287 84 102 116 50 233 115 241 89 199 231 201 176 155 147 187 292 301 244 231 222 200 200 197 213 216 208 228 240 251 208 232 239 152 180 213 212 197 203 70 70 157 191 178 177 184 190 190
188 152 197 359 67 318 167 130 171 187 199 187 192 216 212 202 205 169 226 164 181 214 194 216 205 189 199 197 193 196 197 204 179 183 188 133 148 196 174 173 147 66 178 174 134 292 147 223 143 143 199 233 212 157 160 194 195 247 259 254 232 120 177 219 226 234 237 263 281 284 272 261 175 151 177 47 67 76 93 176 194 188 156 166 179 190 195 199
91 76 163 133 178 202 191 188 187 202 198 225 193 200 209 212 212 183 178 349 201 184 180 208 183 142 152 183 200 201 112 111 95 134 155 164 180 188 142 210 142 146 123 120 131 225 187 197 118 167 194 226 146 173 167 138 198 237 253 237 217 171 213 211 217 227 217 226 237 242 249 258 236 132 95 117 125 173 195 187 184 173 169 171 184 195 200 206
79 179 117 124 155 184 188 189 188 186 223 205 185 182 183 207 180 141 152 8 44 58 138 143 152 130 51 159 191 139 122 94 104 95 82 41 76 131 90 135 141 148 150 140 144 151 185 161 163 179 185 199 22 134 128 122 112 280 247 222 189 210 222 205 212 217 217 217 227 231 237 241 220 152 161 178 176 186 192 195 192 177 175 181 189 198 207 210